Location: Boiro
(42.6475°N, 8.8834°W)
Time: 11:24:15
(UTC+01:00)

Altair - Pass Details

Date: 02 December 2021
Orbit: 1501 x 1683 km, 47.2° (Epoch: 17 January)

Event Time Altitude Azimuth Distance (km) Brightness Sun altitude
Rises 23:19:22 0° 295° (WNW) 4,660 10.5 -56.7°
Reaches altitude 10° 23:22:26 10° 293° (WNW) 3,665 9.8 -57.2°
Enters shadow 23:24:17 18° 291° (WNW) 3,079 9.3 -57.5°
